This is the latest recevied weather packets stored in our database for station/object N4QEP-13. If no packets are shown the sender has not sent any weather packets the latest 10 day(s).
| Time | Temp. | Humidity | Pressure | Rain* | Wind** | Luminosity | Snow |
|---|---|---|---|---|---|---|---|
| 1777509014 | 23.33° C | 79% | 1013.5 hPa | 0.51 mm | - | - | - |
| 1777508114 | 23.33° C | 77% | 1013.7 hPa | 0.25 mm | - | - | - |
| 1777507212 | 23.89° C | 77% | 1013.7 hPa | 0.25 mm | - | - | - |
| 1777506313 | 23.89° C | 76% | 1013.5 hPa | 0 mm | - | - | - |
| 1777505412 | 23.89° C | 76% | 1013.2 hPa | 0 mm | - | - | - |
| 1777504511 | 24.44° C | 75% | 1012.7 hPa | 0 mm | - | - | - |
| 1777503608 | 24.44° C | 74% | 1012.9 hPa | 0 mm | - | - | - |
| 1777502710 | 24.44° C | 73% | 1012.7 hPa | 0 mm | - | - | - |
| 1777501807 | 25° C | 72% | 1012.1 hPa | 0 mm | - | - | - |
| 1777500911 | 25.56° C | 72% | 1011.8 hPa | 0 mm | - | - | - |
| 1777500007 | 25.56° C | 71% | 1011.9 hPa | 0 mm | - | - | - |
| 1777499102 | 25.56° C | 71% | 1012.2 hPa | 0 mm | - | - | - |
| 1777498266 | 26.11° C | 69% | 1012.3 hPa | 0 mm | - | - | - |
| 1777497361 | 26.67° C | 69% | 1012.5 hPa | 0 mm | - | - | - |
| 1777496467 | 27.22° C | 69% | 1012.6 hPa | 0 mm | - | - | - |
| 1777495552 | 27.22° C | 70% | 1012.8 hPa | 0 mm | - | - | - |
| 1777494653 | 26.67° C | 68% | 1013.2 hPa | 0 mm | - | - | - |
| 1777493750 | 27.22° C | 68% | 1013.1 hPa | 0 mm | - | - | - |
| 1777492848 | 27.78° C | 67% | 1013.4 hPa | 0 mm | - | - | - |
| 1777491944 | 27.22° C | 68% | 1013.7 hPa | 0 mm | - | - | - |
| 1777491044 | 27.22° C | 67% | 1014 hPa | 0 mm | - | - | - |
| 1777490144 | 27.78° C | 66% | 1014.2 hPa | 0 mm | - | - | - |
| 1777489239 | 28.89° C | 64% | 1014.6 hPa | 0 mm | - | - | - |
| 1777488336 | 28.33° C | 65% | 1014.7 hPa | 0 mm | - | - | - |
| 1777487436 | 28.33° C | 66% | 1014.9 hPa | 0 mm | - | - | - |
* Rain latest hour (hover to see other rain measurements)
** Current wind speed in m/s (hover to see current wind gust speed)